Location: Bergnerzell
(49.1816°N, 10.2565°E)
Time: 00:30:58
(UTC+00:00)

Lacrosse 5 rocket - Pass Details

Date: 23 May 2024
Orbit: 446 x 572 km, 57.0° (Epoch: 15 June)

Event Time Altitude Azimuth Distance (km) Brightness Sun altitude
Rises 01:20:16 0° 303° (WNW) 2,733 4.9 -14.9°
Reaches altitude 10° 01:22:34 10° 298° (WNW) 1,817 3.9 -14.7°
Maximum altitude 01:26:34 52° 222° (SW) 662 1.3 -14.4°
Drops below altitude 10° 01:30:23 10° 146° (SE) 1,731 3.6 -14.0°
Sets 01:32:32 0° 141° (SE) 2,590 4.6 -13.8°
